Year,Month,Day,Hour,Minute,Value (Times are PST for temperature in C)
2008,10,15,00,00,2.20
2008,10,15,00,01,2.20
2008,10,15,00,02,2.30
2008,10,15,00,03,2.30
2008,10,15,00,04,2.30
2008,10,15,00,05,2.20
2008,10,15,00,06,2.20
2008,10,15,00,07,2.10
2008,10,15,00,08,2.10
2008,10,15,00,09,2.00
2008,10,15,00,10,2.00
2008,10,15,00,11,1.90
2008,10,15,00,12,1.90
2008,10,15,00,13,2.00
2008,10,15,00,14,2.00
2008,10,15,00,15,2.10
2008,10,15,00,16,2.10
2008,10,15,00,17,2.10
2008,10,15,00,18,2.10
2008,10,15,00,19,2.00
2008,10,15,00,20,2.00
2008,10,15,00,21,2.00
2008,10,15,00,22,2.00
2008,10,15,00,23,2.00
2008,10,15,00,24,2.00
2008,10,15,00,25,2.20
2008,10,15,00,26,2.20
2008,10,15,00,27,2.30
2008,10,15,00,28,2.40
2008,10,15,00,29,2.50
2008,10,15,00,30,2.60
2008,10,15,00,31,2.50
2008,10,15,00,32,2.40
2008,10,15,00,33,2.40
2008,10,15,00,34,2.40
2008,10,15,00,35,2.50
2008,10,15,00,36,2.50
2008,10,15,00,37,2.40
2008,10,15,00,38,2.30
2008,10,15,00,39,2.20
2008,10,15,00,40,2.20
2008,10,15,00,41,2.20
2008,10,15,00,42,2.20
2008,10,15,00,43,2.10
2008,10,15,00,44,2.10
2008,10,15,00,45,2.10
2008,10,15,00,46,2.10
2008,10,15,00,47,2.10
2008,10,15,00,48,2.10
2008,10,15,00,49,2.00
2008,10,15,00,50,2.00
2008,10,15,00,51,1.90
2008,10,15,00,52,1.90
2008,10,15,00,53,1.90
2008,10,15,00,54,1.80
2008,10,15,00,55,1.80
2008,10,15,00,56,1.80
2008,10,15,00,57,1.80
2008,10,15,00,58,1.70
2008,10,15,00,59,1.80
2008,10,15,01,00,1.70
2008,10,15,01,01,1.70
2008,10,15,01,02,1.70
2008,10,15,01,03,1.70
2008,10,15,01,04,1.80
2008,10,15,01,05,1.80
2008,10,15,01,06,1.80
2008,10,15,01,07,1.90
2008,10,15,01,08,1.90
2008,10,15,01,09,2.00
2008,10,15,01,10,2.10
2008,10,15,01,11,2.20
2008,10,15,01,12,2.20
2008,10,15,01,13,2.20
2008,10,15,01,14,2.20
2008,10,15,01,15,2.20
2008,10,15,01,16,2.10
2008,10,15,01,17,2.10
2008,10,15,01,18,2.00
2008,10,15,01,19,2.00
2008,10,15,01,20,2.00
2008,10,15,01,21,2.00
2008,10,15,01,22,2.00
2008,10,15,01,23,2.10
2008,10,15,01,24,2.10
2008,10,15,01,25,2.10
2008,10,15,01,26,2.20
2008,10,15,01,27,2.20
2008,10,15,01,28,2.30
2008,10,15,01,29,2.30
2008,10,15,01,30,2.30
2008,10,15,01,31,2.30
2008,10,15,01,32,2.30
2008,10,15,01,33,2.40
2008,10,15,01,34,2.60
2008,10,15,01,35,2.70
2008,10,15,01,36,3.00
2008,10,15,01,37,3.00
2008,10,15,01,38,3.00
2008,10,15,01,39,3.10
2008,10,15,01,40,3.10
2008,10,15,01,41,3.20
2008,10,15,01,42,3.20
2008,10,15,01,43,3.20
2008,10,15,01,44,3.20
2008,10,15,01,45,3.30
2008,10,15,01,46,3.30
2008,10,15,01,47,3.30
2008,10,15,01,48,3.30
2008,10,15,01,49,3.30
2008,10,15,01,50,3.40
2008,10,15,01,51,3.40
2008,10,15,01,52,3.40
2008,10,15,01,53,3.30
2008,10,15,01,54,3.20
2008,10,15,01,55,3.20
2008,10,15,01,56,3.20
2008,10,15,01,57,3.10
2008,10,15,01,58,3.20
2008,10,15,01,59,3.20
2008,10,15,02,00,3.20
2008,10,15,02,01,3.20
2008,10,15,02,02,3.30
2008,10,15,02,03,3.50
2008,10,15,02,04,3.60
2008,10,15,02,05,3.70
2008,10,15,02,06,3.70
2008,10,15,02,07,3.70
2008,10,15,02,08,3.80
2008,10,15,02,09,3.80
2008,10,15,02,10,3.80
2008,10,15,02,11,3.90
2008,10,15,02,12,3.90
2008,10,15,02,13,3.80
2008,10,15,02,14,3.80
2008,10,15,02,15,3.80
2008,10,15,02,16,3.90
2008,10,15,02,17,3.90
2008,10,15,02,18,3.90
2008,10,15,02,19,3.80
2008,10,15,02,20,3.70
2008,10,15,02,21,3.70
2008,10,15,02,22,3.80
2008,10,15,02,23,3.80
2008,10,15,02,24,3.80
2008,10,15,02,25,3.70
2008,10,15,02,26,3.80
2008,10,15,02,27,3.90
2008,10,15,02,28,3.90
2008,10,15,02,29,3.80
2008,10,15,02,30,3.70
2008,10,15,02,31,3.60
2008,10,15,02,32,3.50
2008,10,15,02,33,3.40
2008,10,15,02,34,3.30
2008,10,15,02,35,3.20
2008,10,15,02,36,3.20
2008,10,15,02,37,3.20
2008,10,15,02,38,3.20
2008,10,15,02,39,3.20
2008,10,15,02,40,3.20
2008,10,15,02,41,3.30
2008,10,15,02,42,3.30
2008,10,15,02,43,3.30
2008,10,15,02,44,3.40
2008,10,15,02,45,3.40
2008,10,15,02,46,3.40
2008,10,15,02,47,3.40
2008,10,15,02,48,3.40
2008,10,15,02,49,3.40
2008,10,15,02,50,3.40
2008,10,15,02,51,3.40
2008,10,15,02,52,3.40
2008,10,15,02,53,3.50
2008,10,15,02,54,3.40
2008,10,15,02,55,3.50
2008,10,15,02,56,3.50
2008,10,15,02,57,3.60
2008,10,15,02,58,3.60
2008,10,15,02,59,3.60
2008,10,15,03,00,3.60
2008,10,15,03,01,3.70
2008,10,15,03,02,3.70
2008,10,15,03,03,3.70
2008,10,15,03,04,3.70
2008,10,15,03,05,3.80
2008,10,15,03,06,3.80
2008,10,15,03,07,3.70
2008,10,15,03,08,3.80
2008,10,15,03,09,3.80
2008,10,15,03,10,3.70
2008,10,15,03,11,3.70
2008,10,15,03,12,3.70
2008,10,15,03,13,3.70
2008,10,15,03,14,3.70
2008,10,15,03,15,3.70
2008,10,15,03,16,3.70
2008,10,15,03,17,3.80
2008,10,15,03,18,3.70
2008,10,15,03,19,3.80
2008,10,15,03,20,3.80
2008,10,15,03,21,3.90
2008,10,15,03,22,3.90
2008,10,15,03,23,4.00
2008,10,15,03,24,4.00
2008,10,15,03,25,3.90
2008,10,15,03,26,3.80
2008,10,15,03,27,3.70
2008,10,15,03,28,3.70
2008,10,15,03,29,3.50
2008,10,15,03,30,3.40
2008,10,15,03,31,3.40
2008,10,15,03,32,3.30
2008,10,15,03,33,3.30
2008,10,15,03,34,3.20
2008,10,15,03,35,3.20
2008,10,15,03,36,3.30
2008,10,15,03,37,3.30
2008,10,15,03,38,3.20
2008,10,15,03,39,3.20
2008,10,15,03,40,3.20
2008,10,15,03,41,3.20
2008,10,15,03,42,3.20
2008,10,15,03,43,3.20
2008,10,15,03,44,3.30
2008,10,15,03,45,3.20
2008,10,15,03,46,3.20
2008,10,15,03,47,3.20
2008,10,15,03,48,3.30
2008,10,15,03,49,3.40
2008,10,15,03,50,3.40
2008,10,15,03,51,3.40
2008,10,15,03,52,3.40
2008,10,15,03,53,3.40
2008,10,15,03,54,3.40
2008,10,15,03,55,3.40
2008,10,15,03,56,3.40
2008,10,15,03,57,3.40
2008,10,15,03,58,3.30
2008,10,15,03,59,3.30
2008,10,15,04,00,3.20
2008,10,15,04,01,3.10
2008,10,15,04,02,3.00
2008,10,15,04,03,3.00
2008,10,15,04,04,3.00
2008,10,15,04,05,3.00
2008,10,15,04,06,3.00
2008,10,15,04,07,2.90
2008,10,15,04,08,2.90
2008,10,15,04,09,2.90
2008,10,15,04,10,2.90
2008,10,15,04,11,2.90
2008,10,15,04,12,2.90
2008,10,15,04,13,2.80
2008,10,15,04,14,2.80
2008,10,15,04,15,2.70
2008,10,15,04,16,2.70
2008,10,15,04,17,2.60
2008,10,15,04,18,2.60
2008,10,15,04,19,2.50
2008,10,15,04,20,2.40
2008,10,15,04,21,2.40
2008,10,15,04,22,2.30
2008,10,15,04,23,2.30
2008,10,15,04,24,2.20
2008,10,15,04,25,2.20
2008,10,15,04,26,2.20
2008,10,15,04,27,2.10
2008,10,15,04,28,2.10
2008,10,15,04,29,2.10
2008,10,15,04,30,2.10
2008,10,15,04,31,2.10
2008,10,15,04,32,2.10
2008,10,15,04,33,2.10
2008,10,15,04,34,2.10
2008,10,15,04,35,2.10
2008,10,15,04,36,2.10
2008,10,15,04,37,2.10
2008,10,15,04,38,2.10
2008,10,15,04,39,2.00
2008,10,15,04,40,2.10
2008,10,15,04,41,2.00
2008,10,15,04,42,2.00
2008,10,15,04,43,2.00
2008,10,15,04,44,1.90
2008,10,15,04,45,1.90
2008,10,15,04,46,2.00
2008,10,15,04,47,2.00
2008,10,15,04,48,1.90
2008,10,15,04,49,1.90
2008,10,15,04,50,1.90
2008,10,15,04,51,1.80
2008,10,15,04,52,1.80
2008,10,15,04,53,1.90
2008,10,15,04,54,1.90
2008,10,15,04,55,1.90
2008,10,15,04,56,1.90
2008,10,15,04,57,1.80
2008,10,15,04,58,1.70
2008,10,15,04,59,1.70
2008,10,15,05,00,1.70
2008,10,15,05,01,1.70
2008,10,15,05,02,1.70
2008,10,15,05,03,1.70
2008,10,15,05,04,1.70
2008,10,15,05,05,1.60
2008,10,15,05,06,1.60
2008,10,15,05,07,1.50
2008,10,15,05,08,1.40
2008,10,15,05,09,1.40
2008,10,15,05,10,1.50
2008,10,15,05,11,1.50
2008,10,15,05,12,1.60
2008,10,15,05,13,1.60
2008,10,15,05,14,1.60
2008,10,15,05,15,1.70
2008,10,15,05,16,1.70
2008,10,15,05,17,1.60
2008,10,15,05,18,1.60
2008,10,15,05,19,1.60
2008,10,15,05,20,1.50
2008,10,15,05,21,1.50
2008,10,15,05,22,1.50
2008,10,15,05,23,1.50
2008,10,15,05,24,1.40
2008,10,15,05,25,1.40
2008,10,15,05,26,1.50
2008,10,15,05,27,1.50
2008,10,15,05,28,1.60
2008,10,15,05,29,1.50
2008,10,15,05,30,1.50
2008,10,15,05,31,1.40
2008,10,15,05,32,1.40
2008,10,15,05,33,1.30
2008,10,15,05,34,1.30
2008,10,15,05,35,1.30
2008,10,15,05,36,1.30
2008,10,15,05,37,1.30
2008,10,15,05,38,1.30
2008,10,15,05,39,1.30
2008,10,15,05,40,1.30
2008,10,15,05,41,1.30
2008,10,15,05,42,1.30
2008,10,15,05,43,1.30
2008,10,15,05,44,1.30
2008,10,15,05,45,1.30
2008,10,15,05,46,1.40
2008,10,15,05,47,1.40
2008,10,15,05,48,1.40
2008,10,15,05,49,1.30
2008,10,15,05,50,1.30
2008,10,15,05,51,1.30
2008,10,15,05,52,1.30
2008,10,15,05,53,1.40
2008,10,15,05,54,1.40
2008,10,15,05,55,1.40
2008,10,15,05,56,1.40
2008,10,15,05,57,1.30
2008,10,15,05,58,1.30
2008,10,15,05,59,1.30
2008,10,15,06,00,1.30
2008,10,15,06,01,1.30
2008,10,15,06,02,1.30
2008,10,15,06,03,1.30
2008,10,15,06,04,1.20
2008,10,15,06,05,1.20
2008,10,15,06,06,1.10
2008,10,15,06,07,1.10
2008,10,15,06,08,1.10
2008,10,15,06,09,1.20
2008,10,15,06,10,1.20
2008,10,15,06,11,1.20
2008,10,15,06,12,1.20
2008,10,15,06,13,1.20
2008,10,15,06,14,1.20
2008,10,15,06,15,1.20
2008,10,15,06,16,1.20
2008,10,15,06,17,1.20
2008,10,15,06,18,1.10
2008,10,15,06,19,1.00
2008,10,15,06,20,0.90
2008,10,15,06,21,1.00
2008,10,15,06,22,1.00
2008,10,15,06,23,1.10
2008,10,15,06,24,1.10
2008,10,15,06,25,1.20
2008,10,15,06,26,1.20
2008,10,15,06,27,1.20
2008,10,15,06,28,1.20
2008,10,15,06,29,1.10
2008,10,15,06,30,1.00
2008,10,15,06,31,0.90
2008,10,15,06,32,0.90
2008,10,15,06,33,0.90
2008,10,15,06,34,1.00
2008,10,15,06,35,1.10
2008,10,15,06,36,1.10
2008,10,15,06,37,1.10
2008,10,15,06,38,1.10
2008,10,15,06,39,1.10
2008,10,15,06,40,1.10
2008,10,15,06,41,1.20
2008,10,15,06,42,1.20
2008,10,15,06,43,1.20
2008,10,15,06,44,1.20
2008,10,15,06,45,1.20
2008,10,15,06,46,1.20
2008,10,15,06,47,1.20
2008,10,15,06,48,1.20
2008,10,15,06,49,1.20
2008,10,15,06,50,1.30
2008,10,15,06,51,1.30
2008,10,15,06,52,1.30
2008,10,15,06,53,1.30
2008,10,15,06,54,1.30
2008,10,15,06,55,1.30
2008,10,15,06,56,1.30
2008,10,15,06,57,1.30
2008,10,15,06,58,1.30
2008,10,15,06,59,1.30
2008,10,15,07,00,1.20
2008,10,15,07,01,1.20
2008,10,15,07,02,1.20
2008,10,15,07,03,1.20
2008,10,15,07,04,1.20
2008,10,15,07,05,1.20
2008,10,15,07,06,1.20
2008,10,15,07,07,1.20
2008,10,15,07,08,1.20
2008,10,15,07,09,1.20
2008,10,15,07,10,1.20
2008,10,15,07,11,1.10
2008,10,15,07,12,1.10
2008,10,15,07,13,1.10
2008,10,15,07,14,1.10
2008,10,15,07,15,1.10
2008,10,15,07,16,1.20
2008,10,15,07,17,1.30
2008,10,15,07,18,1.30
2008,10,15,07,19,1.20
2008,10,15,07,20,1.10
2008,10,15,07,21,1.00
2008,10,15,07,22,1.00
2008,10,15,07,23,1.00
2008,10,15,07,24,1.00
2008,10,15,07,25,1.00
2008,10,15,07,26,1.00
2008,10,15,07,27,1.10
2008,10,15,07,28,1.20
2008,10,15,07,29,1.20
2008,10,15,07,30,1.20
2008,10,15,07,31,1.20
2008,10,15,07,32,1.20
2008,10,15,07,33,1.10
2008,10,15,07,34,1.10
2008,10,15,07,35,1.20
2008,10,15,07,36,1.10
2008,10,15,07,37,1.10
2008,10,15,07,38,1.00
2008,10,15,07,39,1.00
2008,10,15,07,40,0.90
2008,10,15,07,41,0.90
2008,10,15,07,42,0.90
2008,10,15,07,43,0.90
2008,10,15,07,44,0.80
2008,10,15,07,45,0.80
2008,10,15,07,46,0.80
2008,10,15,07,47,0.80
2008,10,15,07,48,0.80
2008,10,15,07,49,0.80
2008,10,15,07,50,0.80
2008,10,15,07,51,0.80
2008,10,15,07,52,0.80
2008,10,15,07,53,0.80
2008,10,15,07,54,0.70
2008,10,15,07,55,0.70
2008,10,15,07,56,0.70
2008,10,15,07,57,0.80
2008,10,15,07,58,0.90
2008,10,15,07,59,1.00
2008,10,15,08,00,1.10
2008,10,15,08,01,1.10
2008,10,15,08,02,1.20
2008,10,15,08,03,1.10
2008,10,15,08,04,1.10
2008,10,15,08,05,1.10
2008,10,15,08,06,1.10
2008,10,15,08,07,1.10
2008,10,15,08,08,1.00
2008,10,15,08,09,1.00
2008,10,15,08,10,1.00
2008,10,15,08,11,0.90
2008,10,15,08,12,0.90
2008,10,15,08,13,0.90
2008,10,15,08,14,0.90
2008,10,15,08,15,1.00
2008,10,15,08,16,1.10
2008,10,15,08,17,1.20
2008,10,15,08,18,1.30
2008,10,15,08,19,1.30
2008,10,15,08,20,1.30
2008,10,15,08,21,1.30
2008,10,15,08,22,1.30
2008,10,15,08,23,1.40
2008,10,15,08,24,1.60
2008,10,15,08,25,1.60
2008,10,15,08,26,1.70
2008,10,15,08,27,1.70
2008,10,15,08,28,1.70
2008,10,15,08,29,1.70
2008,10,15,08,30,1.70
2008,10,15,08,31,1.70
2008,10,15,08,32,1.70
2008,10,15,08,33,1.80
2008,10,15,08,34,1.80
2008,10,15,08,35,1.80
2008,10,15,08,36,1.90
2008,10,15,08,37,1.90
2008,10,15,08,38,2.00
2008,10,15,08,39,2.00
2008,10,15,08,40,2.10
2008,10,15,08,41,2.10
2008,10,15,08,42,2.20
2008,10,15,08,43,2.20
2008,10,15,08,44,2.30
2008,10,15,08,45,2.30
2008,10,15,08,46,2.40
2008,10,15,08,47,2.40
2008,10,15,08,48,2.50
2008,10,15,08,49,2.50
2008,10,15,08,50,2.60
2008,10,15,08,51,2.60
2008,10,15,08,52,2.70
2008,10,15,08,53,2.70
2008,10,15,08,54,2.80
2008,10,15,08,55,2.80
2008,10,15,08,56,2.90
2008,10,15,08,57,3.00
2008,10,15,08,58,3.10
2008,10,15,08,59,3.20
2008,10,15,09,00,3.30
2008,10,15,09,01,3.30
2008,10,15,09,02,3.40
2008,10,15,09,03,3.40
2008,10,15,09,04,3.40
2008,10,15,09,05,3.50
2008,10,15,09,06,3.60
2008,10,15,09,07,3.60
2008,10,15,09,08,3.70
2008,10,15,09,09,3.70
2008,10,15,09,10,3.80
2008,10,15,09,11,3.90
2008,10,15,09,12,4.00
2008,10,15,09,13,4.10
2008,10,15,09,14,4.10
2008,10,15,09,15,4.20
2008,10,15,09,16,4.30
2008,10,15,09,17,4.40
2008,10,15,09,18,4.50
2008,10,15,09,19,4.50
2008,10,15,09,20,4.60
2008,10,15,09,21,4.70
2008,10,15,09,22,4.80
2008,10,15,09,23,4.90
2008,10,15,09,24,4.90
2008,10,15,09,25,5.00
2008,10,15,09,26,5.10
2008,10,15,09,27,5.20
2008,10,15,09,28,5.20
2008,10,15,09,29,5.30
2008,10,15,09,30,5.30
2008,10,15,09,31,5.30
2008,10,15,09,32,5.40
2008,10,15,09,33,5.40
2008,10,15,09,34,5.40
2008,10,15,09,35,5.40
2008,10,15,09,36,5.50
2008,10,15,09,37,5.60
2008,10,15,09,38,5.80
2008,10,15,09,39,5.90
2008,10,15,09,40,6.00
2008,10,15,09,41,6.00
2008,10,15,09,42,6.10
2008,10,15,09,43,6.10
2008,10,15,09,44,6.20
2008,10,15,09,45,6.30
2008,10,15,09,46,6.50
2008,10,15,09,47,6.60
2008,10,15,09,48,6.60
2008,10,15,09,49,6.70
2008,10,15,09,50,6.80
2008,10,15,09,51,6.80
2008,10,15,09,52,6.90
2008,10,15,09,53,7.00
2008,10,15,09,54,7.10
2008,10,15,09,55,7.10
2008,10,15,09,56,7.20
2008,10,15,09,57,7.20
2008,10,15,09,58,7.30
2008,10,15,09,59,7.30
2008,10,15,10,00,7.40
2008,10,15,10,01,7.50
2008,10,15,10,02,7.60
2008,10,15,10,03,7.60
2008,10,15,10,04,7.70
2008,10,15,10,05,7.80
2008,10,15,10,06,7.90
2008,10,15,10,07,8.00
2008,10,15,10,08,8.00
2008,10,15,10,09,8.10
2008,10,15,10,10,8.00
2008,10,15,10,11,8.00
2008,10,15,10,12,8.00
2008,10,15,10,13,8.00
2008,10,15,10,14,8.10
2008,10,15,10,15,8.10
2008,10,15,10,16,8.10
2008,10,15,10,17,8.10
2008,10,15,10,18,8.10
2008,10,15,10,19,8.20
2008,10,15,10,20,8.20
2008,10,15,10,21,8.30
2008,10,15,10,22,8.30
2008,10,15,10,23,8.30
2008,10,15,10,24,8.40
2008,10,15,10,25,8.40
2008,10,15,10,26,8.40
2008,10,15,10,27,8.50
2008,10,15,10,28,8.50
2008,10,15,10,29,8.50
2008,10,15,10,30,8.60
2008,10,15,10,31,8.60
2008,10,15,10,32,8.70
2008,10,15,10,33,8.80
2008,10,15,10,34,8.90
2008,10,15,10,35,8.90
2008,10,15,10,36,8.80
2008,10,15,10,37,8.80
2008,10,15,10,38,8.80
2008,10,15,10,39,8.80
2008,10,15,10,40,8.90
2008,10,15,10,41,8.90
2008,10,15,10,42,8.80
2008,10,15,10,43,8.80
2008,10,15,10,44,8.80
2008,10,15,10,45,8.70
2008,10,15,10,46,8.70
2008,10,15,10,47,8.60
2008,10,15,10,48,8.60
2008,10,15,10,49,8.60
2008,10,15,10,50,8.60
2008,10,15,10,51,8.60
2008,10,15,10,52,8.60
2008,10,15,10,53,8.60
2008,10,15,10,54,8.50
2008,10,15,10,55,8.50
2008,10,15,10,56,8.50
2008,10,15,10,57,8.40
2008,10,15,10,58,8.30
2008,10,15,10,59,8.30
2008,10,15,11,00,8.20
2008,10,15,11,01,8.20
2008,10,15,11,02,8.20
2008,10,15,11,03,8.10
2008,10,15,11,04,8.10
2008,10,15,11,05,8.10
2008,10,15,11,06,8.10
2008,10,15,11,07,8.10
2008,10,15,11,08,8.20
2008,10,15,11,09,8.30
2008,10,15,11,10,8.40
2008,10,15,11,11,8.50
2008,10,15,11,12,8.50
2008,10,15,11,13,8.60
2008,10,15,11,14,8.70
2008,10,15,11,15,8.70
2008,10,15,11,16,8.70
2008,10,15,11,17,8.70
2008,10,15,11,18,8.60
2008,10,15,11,19,8.60
2008,10,15,11,20,8.50
2008,10,15,11,21,8.50
2008,10,15,11,22,8.50
2008,10,15,11,23,8.50
2008,10,15,11,24,8.50
2008,10,15,11,25,8.50
2008,10,15,11,26,8.60
2008,10,15,11,27,8.60
2008,10,15,11,28,8.60
2008,10,15,11,29,8.70
2008,10,15,11,30,8.70
2008,10,15,11,31,8.70
2008,10,15,11,32,8.70
2008,10,15,11,33,8.80
2008,10,15,11,34,8.80
2008,10,15,11,35,8.90
2008,10,15,11,36,8.90
2008,10,15,11,37,9.00
2008,10,15,11,38,9.00
2008,10,15,11,39,8.90
2008,10,15,11,40,8.90
2008,10,15,11,41,8.90
2008,10,15,11,42,8.90
2008,10,15,11,43,9.00
2008,10,15,11,44,9.00
2008,10,15,11,45,9.00
2008,10,15,11,46,9.00
2008,10,15,11,47,8.90
2008,10,15,11,48,8.80
2008,10,15,11,49,8.80
2008,10,15,11,50,8.70
2008,10,15,11,51,8.70
2008,10,15,11,52,8.70
2008,10,15,11,53,8.70
2008,10,15,11,54,8.60
2008,10,15,11,55,8.50
2008,10,15,11,56,8.40
2008,10,15,11,57,8.40
2008,10,15,11,58,8.40
2008,10,15,11,59,8.50
2008,10,15,12,00,8.60
2008,10,15,12,01,8.70
2008,10,15,12,02,8.70
2008,10,15,12,03,8.70
2008,10,15,12,04,8.80
2008,10,15,12,05,8.80
2008,10,15,12,06,8.90
2008,10,15,12,07,9.00
2008,10,15,12,08,8.90
2008,10,15,12,09,8.90
2008,10,15,12,10,9.00
2008,10,15,12,11,9.00
2008,10,15,12,12,9.10
2008,10,15,12,13,9.00
2008,10,15,12,14,8.90
2008,10,15,12,15,8.90
2008,10,15,12,16,8.80
2008,10,15,12,17,8.80
2008,10,15,12,18,8.80
2008,10,15,12,19,8.80
2008,10,15,12,20,8.70
2008,10,15,12,21,8.70
2008,10,15,12,22,8.70
2008,10,15,12,23,8.70
2008,10,15,12,24,8.70
2008,10,15,12,25,8.70
2008,10,15,12,26,8.70
2008,10,15,12,27,8.70
2008,10,15,12,28,8.70
2008,10,15,12,29,8.70
2008,10,15,12,30,8.80
2008,10,15,12,31,8.90
2008,10,15,12,32,9.00
2008,10,15,12,33,8.90
2008,10,15,12,34,9.00
2008,10,15,12,35,9.00
2008,10,15,12,36,9.00
2008,10,15,12,37,9.10
2008,10,15,12,38,9.20
2008,10,15,12,39,9.20
2008,10,15,12,40,9.10
2008,10,15,12,41,9.10
2008,10,15,12,42,9.00
2008,10,15,12,43,8.90
2008,10,15,12,44,8.90
2008,10,15,12,45,8.90
2008,10,15,12,46,8.90
2008,10,15,12,47,8.90
2008,10,15,12,48,8.90
2008,10,15,12,49,8.80
2008,10,15,12,50,8.90
2008,10,15,12,51,8.90
2008,10,15,12,52,8.90
2008,10,15,12,53,8.90
2008,10,15,12,54,8.90
2008,10,15,12,55,8.90
2008,10,15,12,56,9.00
2008,10,15,12,57,9.00
2008,10,15,12,58,9.00
2008,10,15,12,59,8.90
2008,10,15,13,00,8.90
2008,10,15,13,01,9.00
2008,10,15,13,02,9.00
2008,10,15,13,03,9.10
2008,10,15,13,04,9.10
2008,10,15,13,05,9.20
2008,10,15,13,06,9.20
2008,10,15,13,07,9.30
2008,10,15,13,08,9.30
2008,10,15,13,09,9.30
2008,10,15,13,10,9.30
2008,10,15,13,11,9.30
2008,10,15,13,12,9.30
2008,10,15,13,13,9.40
2008,10,15,13,14,9.40
2008,10,15,13,15,9.30
2008,10,15,13,16,9.20
2008,10,15,13,17,9.20
2008,10,15,13,18,9.20
2008,10,15,13,19,9.20
2008,10,15,13,20,9.10
2008,10,15,13,21,9.20
2008,10,15,13,22,9.20
2008,10,15,13,23,9.30
2008,10,15,13,24,9.30
2008,10,15,13,25,9.30
2008,10,15,13,26,9.30
2008,10,15,13,27,9.40
2008,10,15,13,28,9.40
2008,10,15,13,29,9.50
2008,10,15,13,30,9.50
2008,10,15,13,31,9.40
2008,10,15,13,32,9.30
2008,10,15,13,33,9.30
2008,10,15,13,34,9.30
2008,10,15,13,35,9.30
2008,10,15,13,36,9.30
2008,10,15,13,37,9.40
2008,10,15,13,38,9.40
2008,10,15,13,39,9.40
2008,10,15,13,40,9.40
2008,10,15,13,41,9.50
2008,10,15,13,42,9.50
2008,10,15,13,43,9.50
2008,10,15,13,44,9.40
2008,10,15,13,45,9.40
2008,10,15,13,46,9.30
2008,10,15,13,47,9.30
2008,10,15,13,48,9.20
2008,10,15,13,49,9.20
2008,10,15,13,50,9.20
2008,10,15,13,51,9.20
2008,10,15,13,52,9.30
2008,10,15,13,53,9.30
2008,10,15,13,54,9.20
2008,10,15,13,55,9.20
2008,10,15,13,56,9.20
2008,10,15,13,57,9.20
2008,10,15,13,58,9.20
2008,10,15,13,59,9.20
2008,10,15,14,00,9.30
2008,10,15,14,01,9.30
2008,10,15,14,02,9.30
2008,10,15,14,03,9.30
2008,10,15,14,04,9.30
2008,10,15,14,05,9.30
2008,10,15,14,06,9.30
2008,10,15,14,07,9.30
2008,10,15,14,08,9.30
2008,10,15,14,09,9.30
2008,10,15,14,10,9.30
2008,10,15,14,11,9.30
2008,10,15,14,12,9.30
2008,10,15,14,13,9.30
2008,10,15,14,14,9.30
2008,10,15,14,15,9.30
2008,10,15,14,16,9.30
2008,10,15,14,17,9.40
2008,10,15,14,18,9.40
2008,10,15,14,19,9.40
2008,10,15,14,20,9.40
2008,10,15,14,21,9.40
2008,10,15,14,22,9.40
2008,10,15,14,23,9.40
2008,10,15,14,24,9.40
2008,10,15,14,25,9.40
2008,10,15,14,26,9.30
2008,10,15,14,27,9.30
2008,10,15,14,28,9.30
2008,10,15,14,29,9.30
2008,10,15,14,30,9.30
2008,10,15,14,31,9.30
2008,10,15,14,32,9.30
2008,10,15,14,33,9.20
2008,10,15,14,34,9.20
2008,10,15,14,35,9.20
2008,10,15,14,36,9.20
2008,10,15,14,37,9.20
2008,10,15,14,38,9.20
2008,10,15,14,39,9.20
2008,10,15,14,40,9.30
2008,10,15,14,41,9.30
2008,10,15,14,42,9.40
2008,10,15,14,43,9.40
2008,10,15,14,44,9.40
2008,10,15,14,45,9.40
2008,10,15,14,46,9.40
2008,10,15,14,47,9.40
2008,10,15,14,48,9.40
2008,10,15,14,49,9.40
2008,10,15,14,50,9.40
2008,10,15,14,51,9.40
2008,10,15,14,52,9.40
2008,10,15,14,53,9.40
2008,10,15,14,54,9.40
2008,10,15,14,55,9.40
2008,10,15,14,56,9.40
2008,10,15,14,57,9.40
2008,10,15,14,58,9.40
2008,10,15,14,59,9.40
2008,10,15,15,00,9.40
2008,10,15,15,01,9.30
2008,10,15,15,02,9.30
2008,10,15,15,03,9.20
2008,10,15,15,04,9.20
2008,10,15,15,05,9.20
2008,10,15,15,06,9.20
2008,10,15,15,07,9.20
2008,10,15,15,08,9.30
2008,10,15,15,09,9.30
2008,10,15,15,10,9.30
2008,10,15,15,11,9.30
2008,10,15,15,12,9.30
2008,10,15,15,13,9.30
2008,10,15,15,14,9.30
2008,10,15,15,15,9.30
2008,10,15,15,16,9.30
2008,10,15,15,17,9.30
2008,10,15,15,18,9.20
2008,10,15,15,19,9.20
2008,10,15,15,20,9.30
2008,10,15,15,21,9.30
2008,10,15,15,22,9.30
2008,10,15,15,23,9.30
2008,10,15,15,24,9.30
2008,10,15,15,25,9.40
2008,10,15,15,26,9.40
2008,10,15,15,27,9.40
2008,10,15,15,28,9.40
2008,10,15,15,29,9.40
2008,10,15,15,30,9.40
2008,10,15,15,31,9.40
2008,10,15,15,32,9.40
2008,10,15,15,33,9.40
2008,10,15,15,34,9.40
2008,10,15,15,35,9.40
2008,10,15,15,36,9.40
2008,10,15,15,37,9.40
2008,10,15,15,38,9.40
2008,10,15,15,39,9.40
2008,10,15,15,40,9.50
2008,10,15,15,41,9.50
2008,10,15,15,42,9.50
2008,10,15,15,43,9.50
2008,10,15,15,44,9.50
2008,10,15,15,45,9.60
2008,10,15,15,46,9.50
2008,10,15,15,47,9.50
2008,10,15,15,48,9.50
2008,10,15,15,49,9.50
2008,10,15,15,50,9.50
2008,10,15,15,51,9.50
2008,10,15,15,52,9.50
2008,10,15,15,53,9.50
2008,10,15,15,54,9.50
2008,10,15,15,55,9.50
2008,10,15,15,56,9.60
2008,10,15,15,57,9.60
2008,10,15,15,58,9.50
2008,10,15,15,59,9.50
2008,10,15,16,00,9.50
2008,10,15,16,01,9.40
2008,10,15,16,02,9.40
2008,10,15,16,03,9.40
2008,10,15,16,04,9.40
2008,10,15,16,05,9.40
2008,10,15,16,06,9.40
2008,10,15,16,07,9.40
2008,10,15,16,08,9.40
2008,10,15,16,09,9.40
2008,10,15,16,10,9.40
2008,10,15,16,11,9.40
2008,10,15,16,12,9.40
2008,10,15,16,13,9.40
2008,10,15,16,14,9.40
2008,10,15,16,15,9.50
2008,10,15,16,16,9.50
2008,10,15,16,17,9.50
2008,10,15,16,18,9.50
2008,10,15,16,19,9.50
2008,10,15,16,20,9.50
2008,10,15,16,21,9.50
2008,10,15,16,22,9.50
2008,10,15,16,23,9.50
2008,10,15,16,24,9.50
2008,10,15,16,25,9.60
2008,10,15,16,26,9.60
2008,10,15,16,27,9.60
2008,10,15,16,28,9.60
2008,10,15,16,29,9.60
2008,10,15,16,30,9.60
2008,10,15,16,31,9.60
2008,10,15,16,32,9.60
2008,10,15,16,33,9.60
2008,10,15,16,34,9.60
2008,10,15,16,35,9.60
2008,10,15,16,36,9.60
2008,10,15,16,37,9.60
2008,10,15,16,38,9.60
2008,10,15,16,39,9.60
2008,10,15,16,40,9.50
2008,10,15,16,41,9.50
2008,10,15,16,42,9.50
2008,10,15,16,43,9.50
2008,10,15,16,44,9.50
2008,10,15,16,45,9.50
2008,10,15,16,46,9.50
2008,10,15,16,47,9.50
2008,10,15,16,48,9.50
2008,10,15,16,49,9.50
2008,10,15,16,50,9.50
2008,10,15,16,51,9.50
2008,10,15,16,52,9.60
2008,10,15,16,53,9.60
2008,10,15,16,54,9.60
2008,10,15,16,55,9.60
2008,10,15,16,56,9.60
2008,10,15,16,57,9.60
2008,10,15,16,58,9.60
2008,10,15,16,59,9.60
2008,10,15,17,00,9.60
2008,10,15,17,01,9.60
2008,10,15,17,02,9.60
2008,10,15,17,03,9.50
2008,10,15,17,04,9.50
2008,10,15,17,05,9.50
2008,10,15,17,06,9.40
2008,10,15,17,07,9.40
2008,10,15,17,08,9.40
2008,10,15,17,09,9.40
2008,10,15,17,10,9.40
2008,10,15,17,11,9.40
2008,10,15,17,12,9.40
2008,10,15,17,13,9.40
2008,10,15,17,14,9.40
2008,10,15,17,15,9.40
2008,10,15,17,16,9.40
2008,10,15,17,17,9.40
2008,10,15,17,18,9.40
2008,10,15,17,19,9.30
2008,10,15,17,20,9.30
2008,10,15,17,21,9.30
2008,10,15,17,22,9.30
2008,10,15,17,23,9.30
2008,10,15,17,24,9.30
2008,10,15,17,25,9.30
2008,10,15,17,26,9.30
2008,10,15,17,27,9.30
2008,10,15,17,28,9.30
2008,10,15,17,29,9.30
2008,10,15,17,30,9.30
2008,10,15,17,31,9.20
2008,10,15,17,32,9.20
2008,10,15,17,33,9.20
2008,10,15,17,34,9.20
2008,10,15,17,35,9.10
2008,10,15,17,36,9.10
2008,10,15,17,37,9.10
2008,10,15,17,38,9.10
2008,10,15,17,39,9.10
2008,10,15,17,40,9.00
2008,10,15,17,41,9.00
2008,10,15,17,42,9.00
2008,10,15,17,43,8.90
2008,10,15,17,44,8.90
2008,10,15,17,45,8.90
2008,10,15,17,46,8.90
2008,10,15,17,47,8.90
2008,10,15,17,48,8.80
2008,10,15,17,49,8.80
2008,10,15,17,50,8.80
2008,10,15,17,51,8.80
2008,10,15,17,52,8.70
2008,10,15,17,53,8.70
2008,10,15,17,54,8.70
2008,10,15,17,55,8.70
2008,10,15,17,56,8.70
2008,10,15,17,57,8.60
2008,10,15,17,58,8.60
2008,10,15,17,59,8.60
2008,10,15,18,00,8.60
2008,10,15,18,01,8.50
2008,10,15,18,02,8.50
2008,10,15,18,03,8.50
2008,10,15,18,04,8.50
2008,10,15,18,05,8.40
2008,10,15,18,06,8.40